Wind_Speed
1 1 2 3 4 4 5 5 5 5 5 5 6 5 5 5 5 5 4 4 4 3 3 3 2 1 1 1 1 1 2 2 2 2 2 3 3 3 3 4 5 6 7
1 2 2 3 3 4 4 4 5 5 5 5 5 6 5 5 5 4 4 4 4 3 3 3 2 1 1 1 1 2 2 2 2 2 2 3 3 3 3 4 5 6 7
1 1 2 2 2 3 3 4 5 5 5 5 5 5 5 5 5 5 5 5 4 3 3 3 2 2 1 2 2 2 2 2 2 2 2 3 4 4 4 4 5 6 7
1 1 2 2 2 2 3 3 4 5 5 5 5 5 5 4 4 4 5 5 4 3 3 3 2 3 2 2 2 2 2 2 3 3 3 3 4 4 4 5 5 6 7
1 2 2 2 2 2 2 3 3 4 4 4 4 4 5 4 4 4 4 4 4 4 4 3 3 3 3 3 3 3 3 3 3 3 3 4 4 4 4 5 4 5 6
2 2 2 2 3 2 2 3 3 3 4 4 4 4 4 4 4 4 4 4 4 4 4 4 5 4 4 3 3 4 4 4 4 4 4 4 4 4 4 4 4 4 5
2 3 3 3 3 3 3 3 3 3 3 4 4 4 4 3 4 4 4 4 5 5 5 5 5 5 4 4 4 4 4 5 5 5 5 4 5 5 5 5 5 5 5
3 3 3 3 3 4 4 4 4 4 4 4 4 4 4 4 4 4 4 5 5 6 6 6 5 5 5 4 4 5 5 5 5 5 5 5 5 5 5 6 6 7 6
4 4 4 4 4 4 5 5 5 5 4 4 4 4 4 5 5 5 5 5 6 6 6 6 5 5 5 5 5 5 5 5 5 6 6 5 5 5 5 5 6 7 7
5 5 5 6 5 5 5 5 6 5 4 4 5 5 5 5 5 5 5 6 6 6 6 6 6 5 5 5 5 5 6 5 6 6 5 5 6 6 5 5 6 7 7
6 6 6 6 6 6 6 6 6 5 4 5 5 6 5 5 6 6 6 6 6 6 6 6 6 6 5 5 5 6 6 6 6 6 5 5 6 7 7 7 7 7 8
6 6 6 6 6 7 7 6 7 6 5 6 6 6 6 6 6 6 6 6 6 7 6 6 6 5 5 5 6 6 6 5 6 6 6 6 6 7 7 7 8 8 8
7 7 7 7 6 7 7 8 7 6 6 6 6 6 6 6 6 5 6 6 6 7 7 6 6 5 5 5 6 6 6 6 6 7 7 7 7 7 8 8 8 9 9
9 8 8 8 7 7 7 7 6 6 7 7 6 6 6 6 6 5 6 6 6 7 6 6 6 6 5 6 6 6 6 6 6 6 7 7 7 7 8 8 8 9 10
9 9 8 9 8 8 6 6 7 6 6 6 7 7 6 6 6 6 6 6 6 6 6 6 7 7 6 6 7 6 7 7 7 7 7 7 7 7 8 8 9 9 10
10 10 10 10 9 8 7 6 6 7 7 7 7 7 7 7 7 7 7 6 6 6 6 7 7 7 7 7 8 7 7 8 8 8 8 8 8 7 7 8 8 9 10
11 11 11 10 9 8 8 7 7 8 7 8 8 8 8 8 7 7 7 7 7 7 7 7 7 7 7 8 8 8 8 9 9 9 8 8 8 8 8 8 9 9 10
11 10 10 10 9 8 8 8 8 8 8 9 9 8 8 8 8 7 7 7 7 6 6 7 7 6 7 7 7 8 8 9 9 9 9 8 8 8 9 9 9 10 10
10 10 10 9 9 9 9 8 8 8 9 9 9 9 8 8 8 8 7 7 7 7 7 7 6 6 7 7 7 7 8 8 9 8 8 8 8 9 9 9 10 10 10
10 10 9 9 9 9 9 9 9 9 9 9 9 9 9 8 8 7 7 8 8 7 7 7 7 7 7 7 7 7 7 8 8 8 8 8 9 9 9 9 10 10 10
10 10 10 10 9 9 9 9 9 9 9 9 9 9 9 9 8 7 7 8 7 8 7 7 7 7 7 8 8 8 8 8 8 8 8 9 9 9 10 10 10 9 10
10 10 9 9 9 10 10 10 9 9 9 9 9 9 9 9 9 8 8 8 8 8 8 8 8 8 8 8 8 8 8 8 9 8 9 9 10 10 10 10 10 10 10
10 10 10 10 10 10 10 10 9 9 9 9 9 9 9 9 9 8 8 8 8 9 9 9 9 8 8 8 8 9 9 9 9 9 9 9 10 11 11 11 11 10 11
11 11 11 10 10 10 10 10 10 9 9 9 9 9 9 9 9 9 9 9 9 9 9 9 9 9 9 9 9 10 10 10 10 10 10 11 11 12 12 12 11 12 12
11 11 11 10 10 10 10 10 10 9 9 10 10 10 10 9 9 9 9 9 10 10 10 10 10 10 10 10 10 10 11 11 10 10 11 12 12 13 13 13 13 13 13
11 11 11 11 11 10 10 10 10 10 10 10 10 10 10 10 10 9 9 10 10 10 10 11 11 11 11 11 11 11 11 11 11 11 12 12 13 13 13 13 13 13 13
Wind_Direction
74 41 18 19 20 19 20 22 24 26 30 33 31 28 23 22 22 23 19 7 4 10 27 34 33 34 22 358 346 332 321 309 322 293 266 256 250 243 237 237 231 226 216
45 18 9 12 17 15 16 19 21 22 21 23 25 23 20 19 19 19 13 8 5 7 13 24 31 24 2 332 318 310 309 300 302 296 277 270 263 247 243 243 239 233 233
33 354 346 351 359 4 3 5 11 13 9 14 16 15 17 18 18 16 12 9 6 1 2 352 359 1 337 316 315 305 299 296 293 291 284 279 267 255 253 251 250 244 240
11 322 327 338 343 348 348 355 6 7 6 6 4 7 8 12 13 12 9 5 3 5 1 349 336 326 317 308 302 300 294 291 290 281 278 276 271 260 254 255 256 256 249
338 314 318 320 322 333 331 337 356 4 360 358 355 359 5 8 8 5 6 5 3 357 350 340 327 323 305 295 296 294 293 293 296 285 281 276 266 259 258 257 256 261 246
290 295 305 306 294 301 310 319 333 352 355 351 351 351 353 359 1 356 356 353 346 341 336 328 318 312 304 293 289 287 287 289 286 284 285 277 263 265 264 259 258 262 248
275 282 284 288 280 279 288 299 312 327 339 344 341 342 343 351 351 344 343 341 336 333 327 322 315 310 300 296 293 290 285 279 280 284 286 283 271 266 263 261 263 265 259
261 277 278 282 279 276 287 288 292 298 303 325 337 341 342 339 336 336 338 337 335 332 331 328 320 310 301 294 290 289 284 279 280 287 289 285 276 271 265 261 268 272 269
260 272 281 278 276 279 282 283 289 299 301 310 328 327 331 327 319 319 321 324 325 325 327 324 315 308 302 292 285 283 280 280 284 288 287 281 277 279 273 268 267 272 273
261 268 276 277 282 283 283 286 290 293 299 303 311 319 317 318 312 308 311 316 319 320 322 321 317 308 302 295 285 282 279 277 282 286 286 280 280 279 280 278 269 269 270
261 266 271 274 276 285 283 284 285 282 287 298 304 307 309 309 311 311 305 306 310 314 317 318 318 311 303 299 293 287 283 280 285 283 283 281 280 276 277 276 272 273 274
262 263 265 272 273 280 282 282 282 280 287 294 300 302 301 301 307 310 308 304 303 305 308 309 311 310 305 300 294 291 286 281 284 282 284 285 284 276 276 276 274 274 277
261 266 265 268 272 276 279 282 274 278 286 293 295 296 296 298 302 305 305 309 306 303 302 301 303 305 302 298 293 288 283 282 284 285 289 287 281 278 277 276 278 277 277
258 264 266 267 272 275 273 273 276 281 284 292 292 292 293 296 298 299 304 303 305 302 302 304 304 302 297 291 290 289 286 285 285 285 284 285 284 281 280 278 281 280 278
255 263 265 267 269 266 262 273 274 274 279 287 293 292 291 294 295 293 296 299 302 305 306 306 309 304 296 288 287 285 284 285 285 282 283 283 284 284 283 284 282 284 283
256 260 262 260 263 258 255 265 273 275 277 284 290 290 290 292 291 293 296 295 300 304 302 303 305 305 298 289 287 283 285 288 284 281 283 282 280 282 284 287 286 285 285
254 255 253 254 257 258 259 260 270 276 278 276 281 287 288 289 289 291 295 296 298 302 302 301 301 299 296 293 290 286 284 284 282 281 283 283 281 285 289 292 289 288 287
252 252 249 251 254 256 260 262 269 274 272 276 280 286 288 288 285 284 285 290 293 294 300 304 304 302 299 297 293 291 289 284 282 281 282 282 282 284 289 291 287 286 286
248 247 246 248 255 260 260 263 269 270 271 275 278 282 287 290 285 283 281 284 287 288 294 300 303 302 298 297 297 296 294 292 290 284 282 281 280 282 286 288 292 290 288
247 246 247 249 256 260 261 267 269 272 275 275 277 280 284 288 287 283 282 284 285 287 292 298 304 300 298 297 300 300 301 300 293 286 282 282 283 284 286 286 290 291 289
246 246 248 252 260 264 267 269 271 273 275 275 277 280 281 282 281 280 281 283 285 286 289 290 293 294 296 294 295 296 298 300 295 287 284 283 282 283 286 289 292 293 292
245 247 250 258 262 267 270 269 269 274 278 276 279 279 279 279 276 275 277 280 282 285 289 290 291 291 291 292 292 294 297 299 298 296 293 290 288 288 288 291 293 293 294
245 248 254 261 265 267 268 264 268 273 276 278 276 275 276 276 275 273 276 278 281 284 286 289 292 293 292 293 292 293 295 296 296 295 294 292 294 294 293 294 294 292 290
249 251 256 262 265 264 265 267 272 275 274 276 276 276 276 273 274 274 274 276 280 282 286 287 287 287 288 292 294 294 294 294 292 293 292 292 294 294 292 293 293 293 290
253 256 259 261 264 266 264 266 270 271 273 277 278 277 275 274 272 273 274 277 282 284 286 285 282 284 288 292 293 293 295 293 291 291 291 292 295 296 293 291 291 292 291
256 258 258 261 264 265 265 265 267 269 272 276 277 276 274 274 276 276 276 277 277 281 284 286 285 284 288 290 291 293 294 294 293 293 292 292 293 295 295 295 292 292 289
Height
5884 5884 5884 5883 5883 5882 5882 5882 5881 5881 5881 5880 5880 5879 5879 5879 5878 5878 5878 5877 5877 5877 5877 5878 5878 5878 5878 5879 5879 5879 5879 5879 5879 5879 5880 5880 5880 5881 5881 5881 5882 5882 5883
5884 5884 5884 5883 5883 5883 5882 5882 5882 5881 5881 5881 5880 5880 5879 5879 5878 5878 5878 5877 5877 5877 5877 5878 5878 5878 5878 5878 5878 5878 5879 5879 5879 5879 5879 5879 5880 5880 5880 5881 5881 5881 5882
5884 5884 5884 5883 5883 5883 5883 5882 5882 5881 5881 5881 5880 5880 5880 5879 5879 5878 5878 5878 5878 5877 5877 5877 5877 5878 5878 5878 5878 5878 5878 5878 5878 5878 5879 5879 5879 5879 5879 5880 5880 5880 5881
5884 5884 5884 5883 5883 5883 5883 5882 5882 5881 5881 5881 5880 5880 5880 5879 5879 5879 5878 5878 5878 5878 5877 5877 5877 5877 5877 5877 5877 5878 5878 5878 5878 5878 5878 5878 5878 5878 5878 5879 5879 5879 5880
5884 5884 5884 5883 5883 5883 5883 5882 5882 5882 5881 5881 5880 5880 5880 5879 5879 5879 5878 5878 5878 5878 5877 5877 5877 5877 5877 5877 5877 5877 5877 5877 5877 5877 5877 5877 5877 5877 5878 5878 5878 5878 5878
5884 5884 5883 5883 5883 5883 5883 5882 5882 5882 5881 5880 5880 5880 5880 5879 5879 5879 5878 5878 5878 5877 5877 5877 5876 5876 5876 5876 5876 5876 5876 5876 5876 5876 5876 5876 5876 5877 5877 5877 5877 5877 5877
5883 5883 5883 5883 5883 5883 5882 5882 5882 5881 5881 5880 5880 5880 5880 5879 5879 5879 5878 5878 5877 5877 5877 5876 5876 5875 5875 5875 5875 5875 5875 5875 5875 5875 5875 5875 5875 5875 5875 5876 5876 5876 5876
5883 5883 5883 5882 5882 5882 5882 5882 5881 5881 5880 5880 5880 5879 5879 5879 5879 5878 5878 5877 5877 5877 5876 5875 5875 5875 5874 5874 5874 5874 5874 5874 5874 5874 5874 5874 5874 5874 5874 5874 5874 5875 5875
5882 5882 5882 5882 5881 5881 5881 5881 5880 5880 5880 5879 5879 5879 5879 5879 5878 5878 5877 5877 5876 5876 5875 5875 5874 5874 5873 5873 5873 5873 5873 5873 5873 5873 5873 5873 5873 5873 5873 5873 5873 5873 5873
5881 5881 5881 5881 5880 5880 5880 5880 5879 5879 5879 5879 5879 5878 5878 5878 5877 5877 5877 5876 5876 5875 5875 5874 5873 5873 5872 5872 5872 5872 5871 5872 5872 5872 5872 5872 5872 5872 5872 5872 5872 5871 5871
5880 5880 5880 5880 5880 5879 5879 5879 5878 5878 5878 5878 5878 5877 5877 5877 5877 5876 5876 5875 5875 5874 5874 5873 5872 5872 5871 5871 5870 5870 5870 5870 5870 5871 5871 5871 5871 5870 5870 5870 5870 5870 5870
5879 5879 5879 5879 5878 5878 5878 5878 5877 5877 5877 5877 5876 5876 5876 5876 5875 5875 5875 5874 5874 5873 5873 5872 5871 5871 5870 5870 5870 5869 5869 5869 5869 5869 5869 5869 5869 5869 5869 5869 5869 5869 5868
5877 5877 5877 5877 5877 5877 5877 5876 5876 5876 5876 5875 5875 5875 5875 5874 5874 5874 5874 5873 5873 5872 5872 5871 5870 5870 5869 5869 5869 5868 5868 5868 5868 5868 5868 5867 5867 5867 5867 5867 5867 5867 5866
5876 5876 5876 5876 5876 5876 5876 5875 5875 5875 5874 5874 5874 5873 5873 5873 5873 5873 5872 5872 5871 5871 5870 5870 5869 5869 5868 5868 5867 5867 5867 5867 5867 5866 5866 5866 5865 5865 5865 5865 5865 5864 5864
5874 5874 5874 5874 5874 5874 5874 5874 5874 5873 5873 5873 5873 5872 5872 5872 5872 5871 5871 5871 5870 5869 5869 5868 5868 5867 5867 5867 5866 5866 5866 5865 5865 5865 5865 5864 5864 5864 5863 5863 5863 5862 5862
5872 5872 5872 5872 5872 5872 5872 5872 5872 5872 5872 5872 5872 5871 5871 5870 5870 5870 5870 5869 5869 5868 5868 5867 5867 5866 5866 5865 5865 5865 5864 5864 5864 5863 5863 5863 5862 5862 5862 5861 5861 5860 5860
5870 5870 5870 5870 5870 5871 5871 5871 5871 5871 5870 5870 5870 5870 5869 5869 5869 5869 5868 5868 5867 5867 5866 5866 5865 5865 5864 5864 5863 5863 5863 5862 5862 5862 5861 5861 5861 5860 5860 5859 5859 5858 5858
5867 5868 5868 5868 5869 5869 5869 5869 5869 5869 5869 5869 5868 5868 5868 5867 5867 5867 5867 5866 5866 5865 5865 5864 5864 5863 5863 5862 5862 5861 5861 5860 5860 5860 5859 5859 5859 5858 5858 5857 5857 5856 5855
5865 5866 5866 5866 5867 5867 5867 5867 5867 5867 5867 5867 5867 5866 5866 5866 5865 5865 5865 5865 5864 5864 5863 5863 5862 5862 5861 5861 5860 5860 5859 5859 5858 5858 5857 5857 5857 5856 5856 5855 5855 5854 5853
5863 5863 5864 5864 5865 5865 5865 5865 5865 5865 5865 5865 5865 5864 5864 5864 5864 5864 5863 5863 5863 5862 5862 5861 5861 5860 5860 5859 5859 5858 5857 5857 5856 5856 5855 5855 5855 5854 5854 5853 5853 5852 5851
5861 5861 5862 5862 5863 5863 5863 5863 5863 5863 5863 5863 5863 5862 5862 5862 5862 5862 5861 5861 5861 5861 5860 5860 5859 5859 5858 5858 5857 5857 5856 5855 5855 5854 5853 5853 5852 5852 5851 5851 5850 5850 5849
5858 5859 5860 5860 5860 5861 5861 5861 5861 5861 5861 5861 5861 5860 5860 5860 5860 5860 5859 5859 5859 5859 5859 5858 5858 5857 5857 5856 5856 5855 5854 5854 5853 5852 5852 5851 5850 5850 5849 5848 5848 5847 5847
5856 5857 5858 5858 5858 5858 5858 5859 5859 5859 5859 5859 5859 5858 5858 5858 5858 5858 5857 5857 5857 5857 5857 5856 5856 5855 5855 5854 5854 5853 5852 5852 5851 5850 5849 5849 5848 5847 5847 5846 5845 5845 5844
5854 5855 5855 5856 5856 5856 5856 5856 5856 5857 5857 5857 5857 5856 5856 5856 5856 5855 5855 5855 5855 5855 5854 5854 5853 5853 5853 5852 5851 5851 5850 5849 5849 5848 5848 5847 5846 5845 5844 5843 5843 5842 5841
5852 5852 5853 5853 5854 5854 5854 5854 5854 5854 5854 5854 5854 5854 5854 5853 5853 5853 5853 5853 5852 5852 5852 5851 5851 5850 5850 5849 5849 5848 5848 5847 5846 5846 5845 5844 5843 5842 5841 5840 5840 5839 5838
5849 5850 5850 5851 5851 5851 5852 5852 5852 5852 5852 5852 5852 5851 5851 5851 5851 5851 5850 5850 5850 5850 5849 5849 5848 5848 5847 5847 5846 5846 5845 5844 5843 5843 5842 5841 5840 5839 5838 5838 5836 5836 5835